This demonstration page uses our WeatherBlox Daily Observations layout. Learn more.

Left ArrowRight Arrow

39.12711, -84.51439

Hourly Observations for July 1, 2017

Temp ( °F °C ) Dew Point ( °F °C ) Humidity (%) Winds ( mph kmh ) Pressure ( in mb ) Visibility ( mi km ) Precip ( " mm )
12:48 am 00:48 Cloudy with Light Rain 72 22 70 21 94 94 S 5 7 29.88 1012 9 14 0.02 0.51
12:53 am 00:53 Cloudy with Light Rain 71 21.7 69 20.6 94 94 SSW 3 6 29.87 1012 8 13 0.03 0.76
1:18 am 01:18 Cloudy 71 21.7 69 20.6 94 94 N N/A 29.88 1012 10 16 N/A
1:53 am 01:53 Mostly Cloudy 70 21.1 69 20.6 97 97 S 8 13 29.87 1011 10 16 N/A
2:06 am 02:06 Cloudy 70 21.1 69 20.6 97 97 S 8 13 29.88 1012 10 16 N/A
2:53 am 02:53 Cloudy 71 21.7 69 20.6 94 94 SW 8 13 29.88 1012 10 16 N/A
3:53 am 03:53 Cloudy 71 21.7 68 20 90 90 WSW 10 17 29.87 1012 10 16 N/A
4:02 am 04:02 Mostly Cloudy 70 21.1 68 20 93 93 WSW 7 11 29.88 1012 10 16 N/A
4:23 am 04:23 Cloudy 71 21.7 69 20.6 94 94 WSW 7 11 29.88 1012 10 16 N/A
4:53 am 04:53 Cloudy 71 21.7 69 20.6 94 94 SSW 5 7 29.88 1012 10 16 N/A
5:49 am 05:49 Cloudy 70 21 70 21 100 100 WSW 9 15 29.91 1013 10 16 N/A
5:53 am 05:53 Cloudy 71 21.7 69 20.6 94 94 WSW 9 15 29.91 1013 10 16 N/A
6:27 am 06:27 Cloudy 70 21.1 69 20.6 97 97 SW 6 9 29.91 1013 8 13 N/A
6:53 am 06:53 Cloudy 70 21.1 69 20.6 97 97 WSW 6 9 29.93 1013 7 11 N/A
7:24 am 07:24 Mostly Cloudy 71 21.7 69 20.6 94 94 WSW 7 11 29.94 1014 8 13 N/A
7:48 am 07:48 Cloudy 72 22 70 21 94 94 WSW 9 15 29.94 1014 10 16 N/A
7:53 am 07:53 Cloudy 72 22.2 69 20.6 91 91 WSW 8 13 29.95 1014 10 16 N/A
8:53 am 08:53 Cloudy 73 22.8 69 20.6 87 87 WSW 10 17 29.96 1015 10 16 N/A
9:53 am 09:53 Mostly Cloudy 76 24.4 69 20.6 79 79 WNW 8 13 29.97 1015 10 16 N/A
10:53 am 10:53 Mostly Cloudy 78 25.6 71 21.7 79 79 WSW 5 7 29.98 1015 10 16 N/A
11:53 am 11:53 Partly Cloudy 80 26.7 70 21.1 71 71 W 9 15 29.98 1015 10 16 N/A
12:53 pm 12:53 Mostly Sunny 79 26.1 70 21.1 74 74 W 5 7 29.99 1016 10 16 N/A
1:53 pm 13:53 Mostly Cloudy 80 26.7 70 21.1 71 71 W 9 15 29.99 1016 10 16 N/A
2:53 pm 14:53 Mostly Cloudy 80 26.7 72 22.2 76 76 SSW 9 15 29.99 1016 10 16 N/A
3:53 pm 15:53 Partly Cloudy 81 27.2 68 20 65 65 WSW 12 19 29.97 1015 10 16 N/A
4:53 pm 16:53 Partly Cloudy 84 28.9 67 19.4 57 57 VRB 6 9 29.96 1014 10 16 N/A
5:53 pm 17:53 Partly Cloudy 84 28.9 66 18.9 55 55 SW 13 20 29.94 1014 10 16 N/A
6:53 pm 18:53 Mostly Sunny 82 27.8 66 18.9 58 58 W 8 13 29.96 1014 10 16 N/A
7:53 pm 19:53 Mostly Sunny 82 27.8 68 20 63 63 W 10 17 29.96 1015 10 16 N/A
8:53 pm 20:53 Mostly Sunny 78 25.6 65 18.3 64 64 WSW 7 11 29.98 1015 10 16 N/A
9:53 pm 21:53 Clear 73 22.8 67 19.4 81 81 N N/A 30.00 1016 10 16 N/A
10:53 pm 22:53 Clear 70 21.1 67 19.4 90 90 N N/A 30.03 1017 10 16 N/A
11:53 pm 23:53 Clear 68 20 67 19.4 96 96 N N/A 30.04 1017 10 16 N/A

Powered by AerisWeather